Time,TemperatureF,DewpointF,PressureIn,WindDirection,WindDirectionDegrees,WindSpeedMPH,WindSpeedGustMPH,Humidity,HourlyPrecipIn,Conditions,Clouds,dailyrainin,SoftwareType,DateUTC
2013-02-27 00:01:00,27.0,14.0,30.16,North,0,0.0,-999.0,58,-99.99,,,-99.99,,2013-02-27 07:01:00,
2013-02-27 00:11:00,27.0,14.0,30.16,North,0,0.0,-999.0,58,-99.99,,,-99.99,,2013-02-27 07:11:00,
2013-02-27 00:21:00,27.0,14.0,30.16,North,0,0.0,-999.0,58,-99.99,,,-99.99,,2013-02-27 07:21:00,
2013-02-27 00:31:00,27.0,16.0,30.15,North,0,0.0,-999.0,63,-99.99,,,-99.99,,2013-02-27 07:31:00,
2013-02-27 00:42:00,27.0,16.0,30.15,North,0,0.0,-999.0,63,-99.99,,,-99.99,,2013-02-27 07:42:00,
2013-02-27 00:52:00,25.0,10.0,30.16,North,0,0.0,-999.0,53,-99.99,,,-99.99,,2013-02-27 07:52:00,
2013-02-27 01:01:00,25.0,10.0,30.16,North,0,0.0,-999.0,53,-99.99,,,-99.99,,2013-02-27 08:01:00,
2013-02-27 01:11:00,25.0,10.0,30.16,North,0,0.0,-999.0,53,-99.99,,,-99.99,,2013-02-27 08:11:00,
2013-02-27 01:21:00,25.0,10.0,30.16,North,0,0.0,-999.0,53,-99.99,,,-99.99,,2013-02-27 08:21:00,
2013-02-27 01:31:00,23.0,12.0,30.16,North,0,0.0,-999.0,62,-99.99,,,-99.99,,2013-02-27 08:31:00,
2013-02-27 01:42:00,23.0,12.0,30.16,North,0,0.0,-999.0,62,-99.99,,,-99.99,,2013-02-27 08:42:00,
2013-02-27 01:52:00,27.0,16.0,30.16,North,0,0.0,-999.0,63,-99.99,,,-99.99,,2013-02-27 08:52:00,
2013-02-27 02:01:00,27.0,16.0,30.16,North,0,0.0,-999.0,63,-99.99,,,-99.99,,2013-02-27 09:01:00,
2013-02-27 02:11:00,27.0,16.0,30.16,North,0,0.0,-999.0,63,-99.99,,,-99.99,,2013-02-27 09:11:00,
2013-02-27 02:21:00,27.0,16.0,30.16,North,0,0.0,-999.0,63,-99.99,,,-99.99,,2013-02-27 09:21:00,
2013-02-27 02:31:00,25.0,14.0,30.16,North,0,0.0,-999.0,63,-99.99,,,-99.99,,2013-02-27 09:31:00,
2013-02-27 02:42:00,25.0,14.0,30.16,North,0,0.0,-999.0,63,-99.99,,,-99.99,,2013-02-27 09:42:00,
2013-02-27 02:52:00,21.0,12.0,30.17,North,0,0.0,-999.0,67,-99.99,,,-99.99,,2013-02-27 09:52:00,
2013-02-27 03:01:00,21.0,12.0,30.17,North,0,0.0,-999.0,67,-99.99,,,-99.99,,2013-02-27 10:01:00,
2013-02-27 03:12:00,21.0,12.0,30.17,North,0,0.0,-999.0,67,-99.99,,,-99.99,,2013-02-27 10:12:00,
2013-02-27 03:21:00,21.0,12.0,30.16,North,0,0.0,-999.0,67,-99.99,,,-99.99,,2013-02-27 10:21:00,
2013-02-27 03:31:00,21.0,12.0,30.16,North,0,0.0,-999.0,67,-99.99,,,-99.99,,2013-02-27 10:31:00,
2013-02-27 03:42:00,21.0,12.0,30.16,North,0,0.0,-999.0,67,-99.99,,,-99.99,,2013-02-27 10:42:00,
2013-02-27 03:52:00,23.0,12.0,30.16,North,0,0.0,-999.0,62,-99.99,,,-99.99,,2013-02-27 10:52:00,
2013-02-27 04:01:00,23.0,12.0,30.16,North,0,0.0,-999.0,62,-99.99,,,-99.99,,2013-02-27 11:01:00,
2013-02-27 04:11:00,21.0,12.0,30.16,North,0,0.0,-999.0,67,-99.99,,,-99.99,,2013-02-27 11:11:00,
2013-02-27 04:22:00,21.0,12.0,30.16,North,0,0.0,-999.0,67,-99.99,,,-99.99,,2013-02-27 11:22:00,
2013-02-27 04:31:00,21.0,12.0,30.16,North,0,0.0,-999.0,67,-99.99,,,-99.99,,2013-02-27 11:31:00,
2013-02-27 04:41:00,21.0,12.0,30.16,North,0,0.0,-999.0,67,-99.99,,,-99.99,,2013-02-27 11:41:00,
2013-02-27 04:52:00,21.0,10.0,30.16,North,0,0.0,-999.0,62,-99.99,,,-99.99,,2013-02-27 11:52:00,
2013-02-27 05:02:00,21.0,10.0,30.16,North,0,0.0,-999.0,62,-99.99,,,-99.99,,2013-02-27 12:02:00,
2013-02-27 05:12:00,21.0,10.0,30.16,North,0,0.0,-999.0,62,-99.99,,,-99.99,,2013-02-27 12:12:00,
2013-02-27 05:22:00,21.0,10.0,30.16,North,0,0.0,-999.0,62,-99.99,,,-99.99,,2013-02-27 12:22:00,
2013-02-27 05:32:00,19.0,10.0,30.17,North,0,0.0,-999.0,67,-99.99,,,-99.99,,2013-02-27 12:32:00,
2013-02-27 05:42:00,19.0,10.0,30.17,North,0,0.0,-999.0,67,-99.99,,,-99.99,,2013-02-27 12:42:00,
2013-02-27 05:52:00,21.0,12.0,30.17,North,0,0.0,-999.0,67,-99.99,,,-99.99,,2013-02-27 12:52:00,
2013-02-27 06:02:00,21.0,12.0,30.17,North,0,0.0,-999.0,67,-99.99,,,-99.99,,2013-02-27 13:02:00,
2013-02-27 06:11:00,21.0,12.0,30.17,North,0,0.0,-999.0,67,-99.99,,,-99.99,,2013-02-27 13:11:00,
2013-02-27 06:21:00,21.0,12.0,30.17,North,0,0.0,-999.0,67,-99.99,,,-99.99,,2013-02-27 13:21:00,
2013-02-27 06:31:00,19.0,9.0,30.17,North,0,0.0,-999.0,62,-99.99,,,-99.99,,2013-02-27 13:31:00,
2013-02-27 06:42:00,19.0,9.0,30.17,North,0,0.0,-999.0,62,-99.99,,,-99.99,,2013-02-27 13:42:00,
2013-02-27 06:52:00,18.0,7.0,30.17,North,0,0.0,-999.0,62,-99.99,,,-99.99,,2013-02-27 13:52:00,
2013-02-27 07:02:00,18.0,7.0,30.17,North,0,0.0,-999.0,62,-99.99,,,-99.99,,2013-02-27 14:02:00,
2013-02-27 07:11:00,16.0,7.0,30.17,North,0,0.0,-999.0,67,-99.99,,,-99.99,,2013-02-27 14:11:00,
2013-02-27 07:21:00,16.0,7.0,30.17,North,0,0.0,-999.0,67,-99.99,,,-99.99,,2013-02-27 14:21:00,
2013-02-27 07:31:00,16.0,9.0,30.17,North,0,0.0,-999.0,72,-99.99,,,-99.99,,2013-02-27 14:31:00,
2013-02-27 07:42:00,16.0,9.0,30.17,North,0,0.0,-999.0,72,-99.99,,,-99.99,,2013-02-27 14:42:00,
2013-02-27 07:52:00,18.0,9.0,30.16,North,0,0.0,-999.0,67,-99.99,,,-99.99,,2013-02-27 14:52:00,
2013-02-27 08:02:00,18.0,9.0,30.16,North,0,0.0,-999.0,67,-99.99,,,-99.99,,2013-02-27 15:02:00,
2013-02-27 08:11:00,18.0,9.0,30.16,North,0,0.0,-999.0,67,-99.99,,,-99.99,,2013-02-27 15:11:00,
2013-02-27 08:22:00,18.0,9.0,30.16,North,0,0.0,-999.0,67,-99.99,,,-99.99,,2013-02-27 15:22:00,
2013-02-27 08:32:00,21.0,10.0,30.17,North,0,0.0,-999.0,62,-99.99,,,-99.99,,2013-02-27 15:32:00,
2013-02-27 08:42:00,21.0,10.0,30.17,North,0,0.0,-999.0,62,-99.99,,,-99.99,,2013-02-27 15:42:00,
2013-02-27 08:52:00,23.0,10.0,30.17,North,0,0.0,-999.0,57,-99.99,,,-99.99,,2013-02-27 15:52:00,
2013-02-27 09:01:00,23.0,10.0,30.17,North,0,0.0,-999.0,57,-99.99,,,-99.99,,2013-02-27 16:01:00,
2013-02-27 09:11:00,27.0,12.0,30.17,North,0,0.0,-999.0,54,-99.99,,,-99.99,,2013-02-27 16:11:00,
2013-02-27 09:21:00,27.0,12.0,30.17,North,0,0.0,-999.0,54,-99.99,,,-99.99,,2013-02-27 16:21:00,
2013-02-27 09:31:00,27.0,12.0,30.17,North,0,0.0,-999.0,54,-99.99,,,-99.99,,2013-02-27 16:31:00,
2013-02-27 09:42:00,27.0,12.0,30.17,North,0,0.0,-999.0,54,-99.99,,,-99.99,,2013-02-27 16:42:00,
2013-02-27 09:51:00,28.0,14.0,30.17,North,0,0.0,-999.0,54,-99.99,,,-99.99,,2013-02-27 16:51:00,
2013-02-27 10:01:00,28.0,14.0,30.17,North,0,0.0,-999.0,54,-99.99,,,-99.99,,2013-02-27 17:01:00,
2013-02-27 10:11:00,28.0,14.0,30.17,North,0,0.0,-999.0,54,-99.99,,,-99.99,,2013-02-27 17:11:00,
2013-02-27 10:21:00,32.0,16.0,30.17,North,0,0.0,-999.0,50,-99.99,,,-99.99,,2013-02-27 17:21:00,
2013-02-27 10:32:00,34.0,16.0,30.17,North,0,0.0,-999.0,47,-99.99,,,-99.99,,2013-02-27 17:32:00,
2013-02-27 10:41:00,34.0,16.0,30.17,North,0,0.0,-999.0,47,-99.99,,,-99.99,,2013-02-27 17:41:00,
2013-02-27 10:52:00,36.0,12.0,30.17,North,0,0.0,-999.0,37,-99.99,,,-99.99,,2013-02-27 17:52:00,
2013-02-27 11:01:00,36.0,12.0,30.17,North,0,0.0,-999.0,37,-99.99,,,-99.99,,2013-02-27 18:01:00,
2013-02-27 11:11:00,37.0,10.0,30.16,North,0,0.0,-999.0,32,-99.99,,,-99.99,,2013-02-27 18:11:00,
2013-02-27 11:22:00,37.0,10.0,30.16,North,0,0.0,-999.0,32,-99.99,,,-99.99,,2013-02-27 18:22:00,
2013-02-27 11:31:00,37.0,12.0,30.16,North,0,0.0,-999.0,34,-99.99,,,-99.99,,2013-02-27 18:31:00,
2013-02-27 11:42:00,37.0,12.0,30.16,North,0,0.0,-999.0,34,-99.99,,,-99.99,,2013-02-27 18:42:00,
2013-02-27 11:51:00,39.0,10.0,30.16,North,0,0.0,-999.0,30,-99.99,,,-99.99,,2013-02-27 18:51:00,
2013-02-27 12:01:00,39.0,10.0,30.16,North,0,0.0,-999.0,30,-99.99,,,-99.99,,2013-02-27 19:01:00,
2013-02-27 12:11:00,39.0,9.0,30.15,North,0,0.0,-999.0,27,-99.99,,,-99.99,,2013-02-27 19:11:00,
2013-02-27 12:21:00,39.0,9.0,30.15,North,0,0.0,-999.0,27,-99.99,,,-99.99,,2013-02-27 19:21:00,
2013-02-27 12:32:00,41.0,10.0,30.15,North,0,0.0,-999.0,28,-99.99,,,-99.99,,2013-02-27 19:32:00,
2013-02-27 12:41:00,41.0,10.0,30.15,North,0,0.0,-999.0,28,-99.99,,,-99.99,,2013-02-27 19:41:00,
2013-02-27 12:51:00,43.0,12.0,30.14,North,0,0.0,-999.0,28,-99.99,,,-99.99,,2013-02-27 19:51:00,
2013-02-27 13:01:00,43.0,12.0,30.14,North,0,0.0,-999.0,28,-99.99,,,-99.99,,2013-02-27 20:01:00,
2013-02-27 13:11:00,43.0,10.0,30.13,North,0,0.0,-999.0,26,-99.99,,,-99.99,,2013-02-27 20:11:00,
2013-02-27 13:21:00,43.0,10.0,30.13,North,0,0.0,-999.0,26,-99.99,,,-99.99,,2013-02-27 20:21:00,
2013-02-27 13:31:00,45.0,12.0,30.13,North,0,0.0,-999.0,26,-99.99,,,-99.99,,2013-02-27 20:31:00,
2013-02-27 13:41:00,45.0,12.0,30.13,North,0,0.0,-999.0,26,-99.99,,,-99.99,,2013-02-27 20:41:00,
2013-02-27 13:52:00,45.0,10.0,30.12,North,0,0.0,-999.0,24,-99.99,,,-99.99,,2013-02-27 20:52:00,
2013-02-27 14:01:00,45.0,10.0,30.12,North,0,0.0,-999.0,24,-99.99,,,-99.99,,2013-02-27 21:01:00,
2013-02-27 14:11:00,45.0,10.0,30.12,North,0,0.0,-999.0,24,-99.99,,,-99.99,,2013-02-27 21:11:00,
2013-02-27 14:21:00,45.0,10.0,30.12,North,0,0.0,-999.0,24,-99.99,,,-99.99,,2013-02-27 21:21:00,
2013-02-27 14:31:00,43.0,10.0,30.12,North,0,0.0,-999.0,26,-99.99,,,-99.99,,2013-02-27 21:31:00,
2013-02-27 14:41:00,43.0,10.0,30.12,North,0,0.0,-999.0,26,-99.99,,,-99.99,,2013-02-27 21:41:00,
2013-02-27 14:51:00,43.0,10.0,30.12,North,0,0.0,-999.0,26,-99.99,,,-99.99,,2013-02-27 21:51:00,
2013-02-27 15:01:00,43.0,10.0,30.12,North,0,0.0,-999.0,26,-99.99,,,-99.99,,2013-02-27 22:01:00,
2013-02-27 15:11:00,43.0,10.0,30.12,North,0,0.0,-999.0,26,-99.99,,,-99.99,,2013-02-27 22:11:00,
2013-02-27 15:21:00,43.0,10.0,30.12,North,0,0.0,-999.0,26,-99.99,,,-99.99,,2013-02-27 22:21:00,
2013-02-27 15:31:00,43.0,10.0,30.12,North,0,0.0,-999.0,26,-99.99,,,-99.99,,2013-02-27 22:31:00,
2013-02-27 15:41:00,43.0,10.0,30.12,North,0,0.0,-999.0,26,-99.99,,,-99.99,,2013-02-27 22:41:00,
2013-02-27 15:51:00,41.0,9.0,30.12,North,0,0.0,-999.0,25,-99.99,,,-99.99,,2013-02-27 22:51:00,
2013-02-27 16:01:00,41.0,9.0,30.12,North,0,0.0,-999.0,25,-99.99,,,-99.99,,2013-02-27 23:01:00,
2013-02-27 16:11:00,41.0,9.0,30.12,North,0,0.0,-999.0,25,-99.99,,,-99.99,,2013-02-27 23:11:00,
2013-02-27 16:21:00,41.0,9.0,30.12,North,0,0.0,-999.0,25,-99.99,,,-99.99,,2013-02-27 23:21:00,
2013-02-27 16:31:00,46.0,9.0,30.11,North,0,0.0,-999.0,21,-99.99,,,-99.99,,2013-02-27 23:31:00,
2013-02-27 16:42:00,46.0,9.0,30.11,North,0,0.0,-999.0,21,-99.99,,,-99.99,,2013-02-27 23:42:00,
2013-02-27 16:53:00,45.0,9.0,30.12,North,0,0.0,-999.0,22,-99.99,,,-99.99,,2013-02-27 23:53:00,
2013-02-27 17:01:00,45.0,9.0,30.12,North,0,0.0,-999.0,22,-99.99,,,-99.99,,2013-02-28 00:01:00,
2013-02-27 17:11:00,43.0,9.0,30.12,North,0,0.0,-999.0,24,-99.99,,,-99.99,,2013-02-28 00:11:00,
2013-02-27 17:21:00,43.0,9.0,30.12,North,0,0.0,-999.0,24,-99.99,,,-99.99,,2013-02-28 00:21:00,
2013-02-27 17:31:00,39.0,10.0,30.12,North,0,0.0,-999.0,30,-99.99,,,-99.99,,2013-02-28 00:31:00,
2013-02-27 17:42:00,39.0,10.0,30.12,North,0,0.0,-999.0,30,-99.99,,,-99.99,,2013-02-28 00:42:00,
2013-02-27 17:51:00,39.0,10.0,30.12,North,0,0.0,-999.0,30,-99.99,,,-99.99,,2013-02-28 00:51:00,
2013-02-27 18:01:00,39.0,10.0,30.12,North,0,0.0,-999.0,30,-99.99,,,-99.99,,2013-02-28 01:01:00,
2013-02-27 18:11:00,36.0,9.0,30.12,North,0,0.0,-999.0,31,-99.99,,,-99.99,,2013-02-28 01:11:00,
2013-02-27 18:21:00,36.0,9.0,30.12,North,0,0.0,-999.0,31,-99.99,,,-99.99,,2013-02-28 01:21:00,
2013-02-27 18:31:00,36.0,10.0,30.12,North,0,0.0,-999.0,34,-99.99,,,-99.99,,2013-02-28 01:31:00,
2013-02-27 18:41:00,36.0,10.0,30.12,North,0,0.0,-999.0,34,-99.99,,,-99.99,,2013-02-28 01:41:00,
2013-02-27 18:51:00,34.0,10.0,30.13,North,0,0.0,-999.0,37,-99.99,,,-99.99,,2013-02-28 01:51:00,
2013-02-27 19:01:00,34.0,10.0,30.13,North,0,0.0,-999.0,37,-99.99,,,-99.99,,2013-02-28 02:01:00,
2013-02-27 19:11:00,34.0,10.0,30.13,North,0,0.0,-999.0,37,-99.99,,,-99.99,,2013-02-28 02:11:00,
2013-02-27 19:22:00,34.0,10.0,30.13,North,0,0.0,-999.0,37,-99.99,,,-99.99,,2013-02-28 02:22:00,
2013-02-27 19:31:00,32.0,10.0,30.14,North,0,0.0,-999.0,40,-99.99,,,-99.99,,2013-02-28 02:31:00,
2013-02-27 19:42:00,32.0,10.0,30.14,North,0,0.0,-999.0,40,-99.99,,,-99.99,,2013-02-28 02:42:00,
2013-02-27 19:52:00,32.0,10.0,30.14,North,0,0.0,-999.0,40,-99.99,,,-99.99,,2013-02-28 02:52:00,
2013-02-27 20:01:00,32.0,10.0,30.14,North,0,0.0,-999.0,40,-99.99,,,-99.99,,2013-02-28 03:01:00,
2013-02-27 20:11:00,32.0,10.0,30.14,North,0,0.0,-999.0,40,-99.99,,,-99.99,,2013-02-28 03:11:00,
2013-02-27 20:21:00,32.0,10.0,30.14,North,0,0.0,-999.0,40,-99.99,,,-99.99,,2013-02-28 03:21:00,
2013-02-27 20:31:00,34.0,12.0,30.14,North,0,0.0,-999.0,40,-99.99,,,-99.99,,2013-02-28 03:31:00,
2013-02-27 20:42:00,34.0,12.0,30.14,North,0,0.0,-999.0,40,-99.99,,,-99.99,,2013-02-28 03:42:00,
2013-02-27 20:52:00,34.0,12.0,30.14,North,0,0.0,-999.0,40,-99.99,,,-99.99,,2013-02-28 03:52:00,
2013-02-27 21:01:00,34.0,12.0,30.14,North,0,0.0,-999.0,40,-99.99,,,-99.99,,2013-02-28 04:01:00,
2013-02-27 21:11:00,34.0,12.0,30.14,North,0,0.0,-999.0,40,-99.99,,,-99.99,,2013-02-28 04:11:00,
2013-02-27 21:21:00,34.0,12.0,30.14,North,0,0.0,-999.0,40,-99.99,,,-99.99,,2013-02-28 04:21:00,
2013-02-27 21:31:00,34.0,12.0,30.14,North,0,0.0,-999.0,40,-99.99,,,-99.99,,2013-02-28 04:31:00,
2013-02-27 21:41:00,34.0,12.0,30.14,North,0,0.0,-999.0,40,-99.99,,,-99.99,,2013-02-28 04:41:00,
2013-02-27 21:51:00,34.0,12.0,30.14,North,0,0.0,-999.0,40,-99.99,,,-99.99,,2013-02-28 04:51:00,
2013-02-27 22:01:00,34.0,12.0,30.14,North,0,0.0,-999.0,40,-99.99,,,-99.99,,2013-02-28 05:01:00,
2013-02-27 22:11:00,34.0,12.0,30.14,North,0,0.0,-999.0,40,-99.99,,,-99.99,,2013-02-28 05:11:00,
2013-02-27 22:22:00,34.0,12.0,30.14,North,0,0.0,-999.0,40,-99.99,,,-99.99,,2013-02-28 05:22:00,
2013-02-27 22:31:00,34.0,12.0,30.14,North,0,0.0,-999.0,40,-99.99,,,-99.99,,2013-02-28 05:31:00,
2013-02-27 22:42:00,34.0,12.0,30.14,North,0,0.0,-999.0,40,-99.99,,,-99.99,,2013-02-28 05:42:00,
2013-02-27 22:51:00,34.0,10.0,30.14,North,0,0.0,-999.0,37,-99.99,,,-99.99,,2013-02-28 05:51:00,
2013-02-27 23:01:00,34.0,10.0,30.14,North,0,0.0,-999.0,37,-99.99,,,-99.99,,2013-02-28 06:01:00,
2013-02-27 23:11:00,34.0,12.0,30.14,North,0,0.0,-999.0,40,-99.99,,,-99.99,,2013-02-28 06:11:00,
2013-02-27 23:22:00,34.0,12.0,30.14,North,0,0.0,-999.0,40,-99.99,,,-99.99,,2013-02-28 06:22:00,
2013-02-27 23:32:00,34.0,10.0,30.14,North,0,0.0,-999.0,37,-99.99,,,-99.99,,2013-02-28 06:32:00,
2013-02-27 23:41:00,34.0,10.0,30.14,North,0,0.0,-999.0,37,-99.99,,,-99.99,,2013-02-28 06:41:00,
2013-02-27 23:51:00,32.0,10.0,30.14,North,0,0.0,-999.0,40,-99.99,,,-99.99,,2013-02-28 06:51:00,